Regional Weather Roundup
Issued by NWS

Home | Current Version | Previous Version | Graphics & Text | Print | Product List | Glossary On
Versions: 1 2 3 4 5 6 7 8 9 10 11 12 13 14 15 16 17 18 19 20 21 22 23 24 25 26 27 28 29 30 31 32 33 34 35 36 37 38 39 40 41 42 43 44 45 46 47 48 49 50
000
ASUS45 KABQ 241201
RWRNM
NEW MEXICO REGIONAL WEATHER ROUNDUP
NATIONAL WEATHER SERVICE ALBUQUERQUE NM
500 AM MST TUE JAN 24 2017

NOTE: "FAIR" MEANS FEW OR NO CLOUDS BELOW 12,000 FEET AGL WITH NO
       SIGNIFICANT WEATHER OR OBSTRUCTIONS TO VISION.

      THIS PRODUCT IS RELEASED AS TWO VERSIONS.  ONE VERSION NEAR
      THE TOP OF THE HOUR CONTAINING PRELIMINARY DATA FROM ALBUQUERQUE
      AND OTHER STATIONS.  A FINAL VERSION WITH ADDITIONAL DATA IS
      ISSUED ABOUT 10 MINUTES AFTER THE HOUR.

NMZ501-503-504-510>518-241300-
NORTHWEST PLATEAU/NORTHCENTRAL MOUNTAINS

CITY           SKY/WX    TMP DP  RH WIND       PRES   REMARKS
FARMINGTON     CLOUDY    29  27  92 NE3       29.58F
6HR MIN TEMP:  29; 6HR MAX TEMP:  30; 6HR PCP:  0.10;

LOS ALAMOS     CLOUDY    28  28 100 S8        29.61R WCI  20
SANTA FE       LGT SNOW  30  29  96 SW9       29.62R FOG     WCI  22
6HR MIN TEMP:  30; 6HR MAX TEMP:  42; 6HR PCP:  0.02;

TAOS           CLOUDY    27  19  74 SW6       29.58S WCI  20
ANGEL FIRE     LGT SNOW  23  20  89 S8        29.56R WCI  14

$$
NMZ402-403-502-505>509-241300-
WESTCENTRAL MOUNTAINS/SOUTHWEST MOUNTAINS

CITY           SKY/WX    TMP DP  RH WIND       PRES   REMARKS
GALLUP         LGT SNOW  27  24  89 SW20G28   29.65R FOG     WCI  13
6HR MIN TEMP:  27; 6HR MAX TEMP:  30; 6HR PCP:  0.07;

GRANTS         LGT SNOW  29  24  82 W14G25    29.67R WCI  18
SILVER CITY    FAIR      32  31  95 W13       29.77F WCI  23

$$
NMZ407-409-411-412-241300-
SOUTHERN DESERTS

CITY           SKY/WX    TMP DP  RH WIND       PRES   REMARKS
DEMING         FAIR      42  33  70 W25G33    29.73S
6HR MIN TEMP:  42; 6HR MAX TEMP:  52;

LAS CRUCES     CLOUDY    46  31  54 W24G36    29.73S
ALAMOGORDO     MOCLDY    46  34  61 S16       29.73S
T OR C         FAIR      42  29  59 SW17      29.67R
6HR MIN TEMP:  42; 6HR MAX TEMP:  51;


$$
NMZ519>523-241300-
CENTRAL VALLEYS/CENTRAL HIGHLANDS

CITY           SKY/WX    TMP DP  RH WIND       PRES   REMARKS
ALBUQUERQUE    MOCLDY    36  32  85 W8        29.67R WCI  30
6HR MIN TEMP:  35; 6HR MAX TEMP:  45; 6HR PCP: TRACE;

DOUBLE EAGLE   CLOUDY    32  31  95 W10       29.65S WCI  24
MORIARTY ARPT  MIX PCPN  33  29  85 W9        29.64S WCI  25
6HR MIN TEMP:  32; 6HR MAX TEMP:  45;

CLINES CORNERS CLOUDY    29  26  89 W21       29.61S WCI  16
6HR MIN TEMP:  28; 6HR MAX TEMP:  39; 6HR PCP:  0.13;

BELEN          CLOUDY    36  33  87 W3        29.68R
6HR MIN TEMP:  33; 6HR MAX TEMP:  49;

SOCORRO        CLOUDY    44  29  57 E3        29.66R
6HR MIN TEMP:  42; 6HR MAX TEMP:  49;


$$
NMZ524>526-539-540-241300-
SOUTHCENTRAL MOUNTAINS

CITY           SKY/WX    TMP DP  RH WIND       PRES   REMARKS
RUIDOSO        NOT AVBL

$$
NMZ527>531-241300-
NORTHEAST HIGHLANDS/NORTHEAST PLAINS

CITY           SKY/WX    TMP DP  RH WIND       PRES   REMARKS
LAS VEGAS      FAIR      31  22  69 SW12      29.55S WCI  22
6HR MIN TEMP:  31; 6HR MAX TEMP:  42;

RATON          FAIR      28  21  75 S8        29.50F WCI  20
6HR MIN TEMP:  27; 6HR MAX TEMP:  38; 6HR PCP:  0.01;

CLAYTON        CLOUDY    39  33  79 W10       29.51F WCI  32
6HR MIN TEMP:  36; 6HR MAX TEMP:  41;


$$
NMZ532>537-241300-
EASTCENTRAL PLAINS

CITY           SKY/WX    TMP DP  RH WIND       PRES   REMARKS
TUCUMCARI      FAIR      43  35  73 W14       29.55R
6HR MIN TEMP:  43; 6HR MAX TEMP:  49;

CANNON AFB     FAIR      45  29  54 W15       29.58R
6HR MIN TEMP:  40; 6HR MAX TEMP:  47;

CLOVIS AIRPORT FAIR      46  28  49 SW17      29.57S

$$
NMZ028-029-538-241300-
SOUTHEAST PLAINS

CITY           SKY/WX    TMP DP  RH WIND       PRES   REMARKS
ROSWELL        FAIR      45  28  51 W8        29.61R
6HR MIN TEMP:  41; 6HR MAX TEMP:  54;

ARTESIA        FAIR      54  30  40 SW23G35   29.62F
CARLSBAD       FAIR      60  27  28 W26G37    29.60S
6HR MIN TEMP:  46; 6HR MAX TEMP:  63;



$$



USA.gov is the U.S. government's official web portal to all federal, state and local government web resources and services.